Time,TemperatureF,DewpointF,PressureIn,WindDirection,WindDirectionDegrees,WindSpeedMPH,WindSpeedGustMPH,Humidity,HourlyPrecipIn,Conditions,Clouds,dailyrainin,SoftwareType,DateUTC
2013-01-12 00:02:00,-3.0,-3.0,-100.00,West,276,4.0,10.0,100,-99.99,,,-99.99,,2013-01-12 07:02:00,
2013-01-12 00:12:00,-3.0,-3.0,-100.00,West,276,4.0,10.0,100,-99.99,,,-99.99,,2013-01-12 07:12:00,
2013-01-12 00:22:00,-3.0,-3.0,-100.00,West,274,4.0,10.0,100,-99.99,,,-99.99,,2013-01-12 07:22:00,
2013-01-12 00:32:00,-3.0,-3.0,-100.00,WSW,247,3.0,16.0,100,-99.99,,,-99.99,,2013-01-12 07:32:00,
2013-01-12 00:42:00,-3.0,-3.0,-100.00,WSW,247,3.0,16.0,100,-99.99,,,-99.99,,2013-01-12 07:42:00,
2013-01-12 00:52:00,-3.0,-3.0,-100.00,WSW,257,9.0,19.0,100,-99.99,,,-99.99,,2013-01-12 07:52:00,
2013-01-12 01:02:00,-4.0,-4.0,-100.00,WSW,242,7.0,16.0,100,-99.99,,,-99.99,,2013-01-12 08:02:00,
2013-01-12 01:11:00,-4.0,-4.0,-100.00,WSW,242,7.0,16.0,100,-99.99,,,-99.99,,2013-01-12 08:11:00,
2013-01-12 01:22:00,-4.0,-4.0,-100.00,SW,230,6.0,11.0,100,-99.99,,,-99.99,,2013-01-12 08:22:00,
2013-01-12 01:32:00,-4.0,-4.0,-100.00,SW,229,4.0,9.0,100,-99.99,,,-99.99,,2013-01-12 08:32:00,
2013-01-12 01:42:00,-4.0,-4.0,-100.00,SW,229,4.0,9.0,100,-99.99,,,-99.99,,2013-01-12 08:42:00,
2013-01-12 01:52:00,-5.0,-5.0,-100.00,SW,236,4.0,8.0,100,-99.99,,,-99.99,,2013-01-12 08:52:00,
2013-01-12 02:02:00,-5.0,-5.0,-100.00,WSW,246,5.0,9.0,100,-99.99,,,-99.99,,2013-01-12 09:02:00,
2013-01-12 02:12:00,-5.0,-5.0,-100.00,WSW,246,5.0,9.0,100,-99.99,,,-99.99,,2013-01-12 09:12:00,
2013-01-12 02:22:00,-5.0,-5.0,-100.00,SW,233,3.0,8.0,100,-99.99,,,-99.99,,2013-01-12 09:22:00,
2013-01-12 02:32:00,-5.0,-5.0,-100.00,SW,220,3.0,6.0,100,-99.99,,,-99.99,,2013-01-12 09:32:00,
2013-01-12 02:42:00,-5.0,-5.0,-100.00,SW,220,3.0,6.0,100,-99.99,,,-99.99,,2013-01-12 09:42:00,
2013-01-12 02:53:00,-4.0,-4.0,-100.00,SW,226,3.0,11.0,100,-99.99,,,-99.99,,2013-01-12 09:53:00,
2013-01-12 03:02:00,-5.0,-5.0,-100.00,SW,227,6.0,11.0,100,-99.99,,,-99.99,,2013-01-12 10:02:00,
2013-01-12 03:11:00,-5.0,-5.0,-100.00,SW,227,6.0,11.0,100,-99.99,,,-99.99,,2013-01-12 10:11:00,
2013-01-12 03:22:00,-5.0,-5.0,-100.00,South,188,4.0,11.0,100,-99.99,,,-99.99,,2013-01-12 10:22:00,
2013-01-12 03:32:00,-5.0,-5.0,-100.00,West,259,5.0,12.0,100,-99.99,,,-99.99,,2013-01-12 10:32:00,
2013-01-12 03:42:00,-5.0,-5.0,-100.00,West,259,5.0,12.0,100,-99.99,,,-99.99,,2013-01-12 10:42:00,
2013-01-12 03:52:00,-5.0,-5.0,-100.00,West,265,6.0,12.0,100,-99.99,,,-99.99,,2013-01-12 10:52:00,
2013-01-12 04:02:00,-5.0,-5.0,-100.00,West,266,5.0,10.0,100,-99.99,,,-99.99,,2013-01-12 11:02:00,
2013-01-12 04:12:00,-5.0,-5.0,-100.00,West,266,5.0,10.0,100,-99.99,,,-99.99,,2013-01-12 11:12:00,
2013-01-12 04:22:00,-5.0,-5.0,-100.00,West,278,4.0,11.0,100,-99.99,,,-99.99,,2013-01-12 11:22:00,
2013-01-12 04:32:00,-5.0,-5.0,-100.00,West,277,4.0,10.0,100,-99.99,,,-99.99,,2013-01-12 11:32:00,
2013-01-12 04:42:00,-5.0,-5.0,-100.00,West,277,4.0,10.0,100,-99.99,,,-99.99,,2013-01-12 11:42:00,
2013-01-12 04:53:00,-4.0,-4.0,-100.00,WNW,283,3.0,11.0,100,-99.99,,,-99.99,,2013-01-12 11:53:00,
2013-01-12 05:02:00,-5.0,-5.0,-100.00,West,266,7.0,14.0,100,-99.99,,,-99.99,,2013-01-12 12:02:00,
2013-01-12 05:12:00,-5.0,-5.0,-100.00,West,266,7.0,14.0,100,-99.99,,,-99.99,,2013-01-12 12:12:00,
2013-01-12 05:22:00,-5.0,-5.0,-100.00,West,277,7.0,14.0,100,-99.99,,,-99.99,,2013-01-12 12:22:00,
2013-01-12 05:32:00,-5.0,-5.0,-100.00,West,271,7.0,17.0,100,-99.99,,,-99.99,,2013-01-12 12:32:00,
2013-01-12 05:42:00,-5.0,-5.0,-100.00,West,271,7.0,17.0,100,-99.99,,,-99.99,,2013-01-12 12:42:00,
2013-01-12 05:53:00,-5.0,-5.0,-100.00,West,273,7.0,14.0,100,-99.99,,,-99.99,,2013-01-12 12:53:00,
2013-01-12 06:02:00,-5.0,-5.0,-100.00,West,264,7.0,14.0,100,-99.99,,,-99.99,,2013-01-12 13:02:00,
2013-01-12 06:12:00,-5.0,-5.0,-100.00,West,264,7.0,14.0,100,-99.99,,,-99.99,,2013-01-12 13:12:00,
2013-01-12 06:22:00,-5.0,-5.0,-100.00,WSW,258,8.0,13.0,100,-99.99,,,-99.99,,2013-01-12 13:22:00,
2013-01-12 06:32:00,-5.0,-5.0,-100.00,WSW,245,8.0,15.0,100,-99.99,,,-99.99,,2013-01-12 13:32:00,
2013-01-12 06:42:00,-5.0,-5.0,-100.00,WSW,245,8.0,15.0,100,-99.99,,,-99.99,,2013-01-12 13:42:00,
2013-01-12 06:53:00,-5.0,-5.0,-100.00,SSW,208,4.0,9.0,100,-99.99,,,-99.99,,2013-01-12 13:53:00,
2013-01-12 07:02:00,-5.0,-5.0,-100.00,SW,216,3.0,6.0,100,-99.99,,,-99.99,,2013-01-12 14:02:00,
2013-01-12 07:12:00,-5.0,-5.0,-100.00,SW,216,3.0,6.0,100,-99.99,,,-99.99,,2013-01-12 14:12:00,
2013-01-12 07:22:00,-5.0,-5.0,-100.00,SW,235,6.0,10.0,100,-99.99,,,-99.99,,2013-01-12 14:22:00,
2013-01-12 07:32:00,-6.0,-6.0,-100.00,WSW,245,6.0,11.0,100,-99.99,,,-99.99,,2013-01-12 14:32:00,
2013-01-12 07:43:00,-6.0,-6.0,-100.00,WSW,245,6.0,11.0,100,-99.99,,,-99.99,,2013-01-12 14:43:00,
2013-01-12 07:53:00,-6.0,-6.0,-100.00,WSW,238,5.0,13.0,100,-99.99,,,-99.99,,2013-01-12 14:53:00,
2013-01-12 08:03:00,-6.0,-6.0,-100.00,WSW,251,6.0,11.0,100,-99.99,,,-99.99,,2013-01-12 15:03:00,
2013-01-12 08:12:00,-6.0,-6.0,-100.00,WSW,251,6.0,11.0,100,-99.99,,,-99.99,,2013-01-12 15:12:00,
2013-01-12 08:22:00,-5.0,-5.0,-100.00,West,263,6.0,15.0,100,-99.99,,,-99.99,,2013-01-12 15:22:00,
2013-01-12 08:33:00,-6.0,-6.0,-100.00,East,88,3.0,8.0,100,-99.99,,,-99.99,,2013-01-12 15:33:00,
2013-01-12 08:42:00,-6.0,-6.0,-100.00,East,88,3.0,8.0,100,-99.99,,,-99.99,,2013-01-12 15:42:00,
2013-01-12 08:53:00,-6.0,-6.0,-100.00,East,92,3.0,7.0,100,-99.99,,,-99.99,,2013-01-12 15:53:00,
2013-01-12 09:02:00,-6.0,-6.0,-100.00,ENE,78,4.0,8.0,100,-99.99,,,-99.99,,2013-01-12 16:02:00,
2013-01-12 09:12:00,-6.0,-6.0,-100.00,ENE,78,4.0,8.0,100,-99.99,,,-99.99,,2013-01-12 16:12:00,
2013-01-12 09:22:00,-3.0,-3.0,-100.00,NE,48,2.0,9.0,100,-99.99,,,-99.99,,2013-01-12 16:22:00,
2013-01-12 09:32:00,-1.0,-1.0,-100.00,WNW,291,4.0,9.0,100,-99.99,,,-99.99,,2013-01-12 16:32:00,
2013-01-12 09:53:00,-3.0,-3.0,-100.00,WSW,255,4.0,11.0,100,-99.99,,,-99.99,,2013-01-12 16:53:00,
2013-01-12 10:02:00,-3.0,-3.0,-100.00,SSE,163,5.0,12.0,100,-99.99,,,-99.99,,2013-01-12 17:02:00,
2013-01-12 10:12:00,-3.0,-3.0,-100.00,SSE,163,5.0,12.0,100,-99.99,,,-99.99,,2013-01-12 17:12:00,
2013-01-12 10:22:00,-2.0,-2.0,-100.00,ESE,105,5.0,8.0,100,-99.99,,,-99.99,,2013-01-12 17:22:00,
2013-01-12 10:32:00,0.0,0.0,-100.00,SE,133,2.0,7.0,100,-99.99,,,-99.99,,2013-01-12 17:32:00,
2013-01-12 10:42:00,0.0,0.0,-100.00,SE,133,2.0,7.0,100,-99.99,,,-99.99,,2013-01-12 17:42:00,
2013-01-12 10:53:00,0.0,0.0,-100.00,SSW,208,2.0,10.0,100,-99.99,,,-99.99,,2013-01-12 17:53:00,
2013-01-12 11:02:00,-2.0,-2.0,-100.00,South,184,5.0,10.0,100,-99.99,,,-99.99,,2013-01-12 18:02:00,
2013-01-12 11:12:00,-2.0,-2.0,-100.00,South,184,5.0,10.0,100,-99.99,,,-99.99,,2013-01-12 18:12:00,
2013-01-12 11:22:00,-3.0,-3.0,-100.00,SW,228,8.0,12.0,100,-99.99,,,-99.99,,2013-01-12 18:22:00,
2013-01-12 11:33:00,-2.0,-2.0,-100.00,SSW,212,6.0,10.0,100,-99.99,,,-99.99,,2013-01-12 18:33:00,
2013-01-12 11:42:00,-2.0,-2.0,-100.00,SSW,212,6.0,10.0,100,-99.99,,,-99.99,,2013-01-12 18:42:00,
2013-01-12 11:53:00,-1.0,-1.0,-100.00,SSW,210,4.0,10.0,100,-99.99,,,-99.99,,2013-01-12 18:53:00,
2013-01-12 12:03:00,0.0,0.0,-100.00,SSW,193,3.0,7.0,100,-99.99,,,-99.99,,2013-01-12 19:03:00,
2013-01-12 12:12:00,0.0,0.0,-100.00,SSW,193,3.0,7.0,100,-99.99,,,-99.99,,2013-01-12 19:12:00,
2013-01-12 12:22:00,-1.0,-1.0,-100.00,WSW,243,3.0,7.0,100,-99.99,,,-99.99,,2013-01-12 19:22:00,
2013-01-12 12:32:00,0.0,0.0,-100.00,NW,313,2.0,5.0,100,-99.99,,,-99.99,,2013-01-12 19:32:00,
2013-01-12 12:42:00,0.0,0.0,-100.00,NW,313,2.0,5.0,100,-99.99,,,-99.99,,2013-01-12 19:42:00,
2013-01-12 12:53:00,1.0,1.0,-100.00,East,82,2.0,6.0,100,-99.99,,,-99.99,,2013-01-12 19:53:00,
2013-01-12 13:02:00,2.0,2.0,-100.00,SE,139,2.0,5.0,100,-99.99,,,-99.99,,2013-01-12 20:02:00,
2013-01-12 13:12:00,2.0,2.0,-100.00,SE,139,2.0,5.0,100,-99.99,,,-99.99,,2013-01-12 20:12:00,
2013-01-12 13:22:00,2.0,2.0,-100.00,WNW,292,2.0,5.0,100,-99.99,,,-99.99,,2013-01-12 20:22:00,
2013-01-12 13:32:00,2.0,2.0,-100.00,West,267,2.0,6.0,100,-99.99,,,-99.99,,2013-01-12 20:32:00,
2013-01-12 13:42:00,2.0,2.0,-100.00,West,267,2.0,6.0,100,-99.99,,,-99.99,,2013-01-12 20:42:00,
2013-01-12 13:53:00,6.0,6.0,-100.00,NNW,340,2.0,6.0,100,-99.99,,,-99.99,,2013-01-12 20:53:00,
2013-01-12 14:02:00,5.0,5.0,-100.00,West,276,2.0,6.0,100,-99.99,,,-99.99,,2013-01-12 21:02:00,
2013-01-12 14:12:00,5.0,5.0,-100.00,West,276,2.0,6.0,100,-99.99,,,-99.99,,2013-01-12 21:12:00,
2013-01-12 14:22:00,3.0,3.0,-100.00,West,265,2.0,7.0,100,-99.99,,,-99.99,,2013-01-12 21:22:00,
2013-01-12 14:32:00,1.0,1.0,-100.00,West,266,3.0,8.0,100,-99.99,,,-99.99,,2013-01-12 21:32:00,
2013-01-12 14:42:00,1.0,1.0,-100.00,West,266,3.0,8.0,100,-99.99,,,-99.99,,2013-01-12 21:42:00,
2013-01-12 14:53:00,-1.0,-1.0,-100.00,West,264,5.0,11.0,100,-99.99,,,-99.99,,2013-01-12 21:53:00,
2013-01-12 15:02:00,-2.0,-2.0,-100.00,West,261,5.0,9.0,100,-99.99,,,-99.99,,2013-01-12 22:02:00,
2013-01-12 15:12:00,-2.0,-2.0,-100.00,West,261,5.0,9.0,100,-99.99,,,-99.99,,2013-01-12 22:12:00,
2013-01-12 15:22:00,-3.0,-3.0,-100.00,West,262,6.0,14.0,100,-99.99,,,-99.99,,2013-01-12 22:22:00,
2013-01-12 15:32:00,-3.0,-3.0,-100.00,WSW,252,7.0,11.0,100,-99.99,,,-99.99,,2013-01-12 22:32:00,
2013-01-12 15:43:00,-3.0,-3.0,-100.00,WSW,252,7.0,11.0,100,-99.99,,,-99.99,,2013-01-12 22:43:00,
2013-01-12 15:53:00,-3.0,-3.0,-100.00,SW,236,7.0,14.0,100,-99.99,,,-99.99,,2013-01-12 22:53:00,
2013-01-12 16:02:00,-2.0,-2.0,-100.00,South,176,6.0,13.0,100,-99.99,,,-99.99,,2013-01-12 23:02:00,
2013-01-12 16:12:00,-2.0,-2.0,-100.00,South,176,6.0,13.0,100,-99.99,,,-99.99,,2013-01-12 23:12:00,
2013-01-12 16:22:00,-2.0,-2.0,-100.00,South,176,6.0,13.0,100,-99.99,,,-99.99,,2013-01-12 23:22:00,
2013-01-12 16:32:00,-3.0,-3.0,-100.00,SSW,209,6.0,11.0,100,-99.99,,,-99.99,,2013-01-12 23:32:00,
2013-01-12 16:43:00,-3.0,-3.0,-100.00,SSW,209,6.0,11.0,100,-99.99,,,-99.99,,2013-01-12 23:43:00,
2013-01-12 16:53:00,-4.0,-4.0,-100.00,SW,229,7.0,12.0,100,-99.99,,,-99.99,,2013-01-12 23:53:00,
2013-01-12 17:02:00,-5.0,-5.0,-100.00,SW,219,9.0,14.0,100,-99.99,,,-99.99,,2013-01-13 00:02:00,
2013-01-12 17:12:00,-5.0,-5.0,-100.00,SW,219,9.0,14.0,100,-99.99,,,-99.99,,2013-01-13 00:12:00,
2013-01-12 17:22:00,-6.0,-6.0,-100.00,SSW,202,10.0,13.0,100,-99.99,,,-99.99,,2013-01-13 00:22:00,
2013-01-12 17:32:00,-7.0,-7.0,-100.00,WSW,242,6.0,12.0,100,-99.99,,,-99.99,,2013-01-13 00:32:00,
2013-01-12 17:42:00,-7.0,-7.0,-100.00,WSW,242,6.0,12.0,100,-99.99,,,-99.99,,2013-01-13 00:42:00,
2013-01-12 17:53:00,-8.0,-8.0,-100.00,SW,230,10.0,14.0,100,-99.99,,,-99.99,,2013-01-13 00:53:00,
2013-01-12 18:02:00,-8.0,-8.0,-100.00,WSW,237,5.0,7.0,100,-99.99,,,-99.99,,2013-01-13 01:02:00,
2013-01-12 18:12:00,-8.0,-8.0,-100.00,WSW,237,5.0,7.0,100,-99.99,,,-99.99,,2013-01-13 01:12:00,
2013-01-12 18:22:00,-9.0,-9.0,-100.00,SSW,208,4.0,9.0,100,-99.99,,,-99.99,,2013-01-13 01:22:00,
2013-01-12 18:32:00,-10.0,-10.0,-100.00,SW,236,6.0,12.0,100,-99.99,,,-99.99,,2013-01-13 01:32:00,
2013-01-12 18:42:00,-10.0,-10.0,-100.00,SW,236,6.0,12.0,100,-99.99,,,-99.99,,2013-01-13 01:42:00,
2013-01-12 18:53:00,-9.0,-9.0,-100.00,West,263,8.0,18.0,100,-99.99,,,-99.99,,2013-01-13 01:53:00,
2013-01-12 19:02:00,-9.0,-9.0,-100.00,SW,228,5.0,16.0,100,-99.99,,,-99.99,,2013-01-13 02:02:00,
2013-01-12 19:12:00,-9.0,-9.0,-100.00,SW,228,5.0,16.0,100,-99.99,,,-99.99,,2013-01-13 02:12:00,
2013-01-12 19:22:00,-9.0,-9.0,-100.00,West,259,14.0,21.0,100,-99.99,,,-99.99,,2013-01-13 02:22:00,
2013-01-12 19:32:00,-9.0,-9.0,-100.00,West,268,15.0,22.0,100,-99.99,,,-99.99,,2013-01-13 02:32:00,
2013-01-12 19:42:00,-9.0,-9.0,-100.00,West,268,15.0,22.0,100,-99.99,,,-99.99,,2013-01-13 02:42:00,
2013-01-12 19:53:00,-8.0,-8.0,-100.00,West,263,7.0,16.0,100,-99.99,,,-99.99,,2013-01-13 02:53:00,
2013-01-12 20:02:00,-9.0,-9.0,-100.00,WSW,258,9.0,17.0,100,-99.99,,,-99.99,,2013-01-13 03:02:00,
2013-01-12 20:12:00,-9.0,-9.0,-100.00,WSW,258,9.0,17.0,100,-99.99,,,-99.99,,2013-01-13 03:12:00,
2013-01-12 20:22:00,-8.0,-8.0,-100.00,West,261,8.0,16.0,100,-99.99,,,-99.99,,2013-01-13 03:22:00,
2013-01-12 20:32:00,-9.0,-9.0,-100.00,West,265,9.0,18.0,100,-99.99,,,-99.99,,2013-01-13 03:32:00,
2013-01-12 20:42:00,-9.0,-9.0,-100.00,West,265,9.0,18.0,100,-99.99,,,-99.99,,2013-01-13 03:42:00,
2013-01-12 20:53:00,-10.0,-10.0,-100.00,West,259,11.0,18.0,100,-99.99,,,-99.99,,2013-01-13 03:53:00,
2013-01-12 21:02:00,-10.0,-10.0,-100.00,West,270,13.0,19.0,100,-99.99,,,-99.99,,2013-01-13 04:02:00,
2013-01-12 21:12:00,-10.0,-10.0,-100.00,West,270,13.0,19.0,100,-99.99,,,-99.99,,2013-01-13 04:12:00,
2013-01-12 21:22:00,-9.0,-9.0,-100.00,West,268,10.0,16.0,100,-99.99,,,-99.99,,2013-01-13 04:22:00,
2013-01-12 21:32:00,-9.0,-9.0,-100.00,WSW,257,7.0,16.0,100,-99.99,,,-99.99,,2013-01-13 04:32:00,
2013-01-12 21:42:00,-9.0,-9.0,-100.00,WSW,257,7.0,16.0,100,-99.99,,,-99.99,,2013-01-13 04:42:00,
2013-01-12 21:52:00,-9.0,-9.0,-100.00,WSW,248,7.0,14.0,100,-99.99,,,-99.99,,2013-01-13 04:52:00,
2013-01-12 22:03:00,-9.0,-9.0,-100.00,West,262,9.0,14.0,100,-99.99,,,-99.99,,2013-01-13 05:03:00,
2013-01-12 22:12:00,-9.0,-9.0,-100.00,West,262,9.0,14.0,100,-99.99,,,-99.99,,2013-01-13 05:12:00,
2013-01-12 22:22:00,-9.0,-9.0,-100.00,West,262,10.0,16.0,100,-99.99,,,-99.99,,2013-01-13 05:22:00,
2013-01-12 22:32:00,-8.0,-8.0,-100.00,West,263,9.0,16.0,100,-99.99,,,-99.99,,2013-01-13 05:32:00,
2013-01-12 22:42:00,-8.0,-8.0,-100.00,West,263,9.0,16.0,100,-99.99,,,-99.99,,2013-01-13 05:42:00,
2013-01-12 22:53:00,-9.0,-9.0,-100.00,SSE,149,1.0,5.0,100,-99.99,,,-99.99,,2013-01-13 05:53:00,
2013-01-12 23:02:00,-9.0,-9.0,-100.00,WNW,298,4.0,11.0,100,-99.99,,,-99.99,,2013-01-13 06:02:00,
2013-01-12 23:12:00,-9.0,-9.0,-100.00,WNW,298,4.0,11.0,100,-99.99,,,-99.99,,2013-01-13 06:12:00,
2013-01-12 23:22:00,-9.0,-9.0,-100.00,West,264,2.0,7.0,100,-99.99,,,-99.99,,2013-01-13 06:22:00,
2013-01-12 23:32:00,-9.0,-9.0,-100.00,West,272,5.0,10.0,100,-99.99,,,-99.99,,2013-01-13 06:32:00,
2013-01-12 23:42:00,-9.0,-9.0,-100.00,West,272,5.0,10.0,100,-99.99,,,-99.99,,2013-01-13 06:42:00,
2013-01-12 23:52:00,-10.0,-10.0,-100.00,West,273,4.0,9.0,100,-99.99,,,-99.99,,2013-01-13 06:52:00,